Regional Weather Roundup
Issued by NWS Cleveland, OH

Home | Current Version | Previous Version | Text Only | Print | Product List | Glossary Off
Versions: 1 2 3 4 5 6 7 8 9 10 11 12 13 14 15 16 17 18 19 20 21 22 23 24 25 26 27 28 29 30 31 32 33 34 35 36 37 38 39 40 41 42 43 44 45 46 47 48 49 50

000
ASUS41 KCLE 231810
RWRCLE
OHIO REGIONAL WEATHER ROUNDUP
NATIONAL WEATHER SERVICE CLEVELAND, OH
200 PM EDT TUE SEP 23 2014

NOTE: "FAIR" INDICATES FEW OR NO CLOUDS BELOW 12,000 FEET WITH NO
SIGNIFICANT WEATHER AND/OR OBSTRUCTIONS TO VISIBILITY.

OHZ001>008-015>018-024>027-034-035-043-044-231900-
   NORTHWEST OHIO

CITY           SKY/WX    TMP DP  RH WIND       PRES   REMARKS
DEFIANCE       SUNNY    N/A N/A N/A E5        30.35F
FINDLAY        SUNNY     69  45  41 NE6       30.35S
TOLEDO EXPRESS SUNNY     68  47  46 W6        30.35F
TOLEDO EXEC    SUNNY     67  46  47 VRB5      30.36F
LIMA           SUNNY     68  46  45 VRB5      30.35F
$$

OHZ009>014-019>023-028>033-038-089-231900-
   NORTHEAST OHIO

CITY           SKY/WX    TMP DP  RH WIND       PRES   REMARKS
CLE-HOPKINS    SUNNY     66  46  48 W6        30.38F
CLE-LAKEFRONT  SUNNY     64  50  60 W7        30.35F
CUY CO. ARPT   SUNNY     68  46  45 S7        30.36F
LORAIN-ELYRIA  SUNNY     68  45  43 CALM      30.37S
ASHTABULA      SUNNY     66  46  48 VRB6      30.36F
AKRON-CANTON   MOSUNNY   65  42  43 CALM      30.37S
WOOSTER        SUNNY     66  45  46 SE6       30.38S
MANSFIELD      SUNNY     66  43  43 SW6       30.36F
YOUNGSTOWN     MOSUNNY   64  45  49 VRB3      30.37S
$$

OHZ042-051>053-060>062-070>072-077>081-231900-
  SOUTHWEST OHIO

CITY           SKY/WX    TMP DP  RH WIND       PRES   REMARKS
CINC-COVINGTON SUNNY     69  41  36 E7        30.34F
CINC-LUNKEN    SUNNY     70  45  40 CALM      30.34F
HAMILTON       SUNNY     70  43  37 CALM      30.35F
DAYTON         SUNNY     70  43  37 N5        30.36F
WRIGHT-PAT AFB SUNNY     68  43  40 SE6       30.35F
DAYTON GENERAL SUNNY     68  46  45 VRB3      30.35F
WILMINGTON     SUNNY     68  38  33 VRB7      30.34F
$$

OHZ036-037-039>041-045>050-054>059-063>069-073>076-082>088-231900-
  CENTRAL AND SOUTHEAST OHIO

CITY           SKY/WX    TMP DP  RH WIND       PRES   REMARKS
COLUMBUS       SUNNY     69  39  33 CALM      30.35F
OSU AIRPORT    SUNNY     66  42  41 NE3       30.36F
BOLTON FIELD   SUNNY     66  45  45 E7        30.36F
RICKENBACK AFB SUNNY     66  41  40 E3        30.35F
NEWARK         SUNNY     67  40  37 CALM      30.36F
MARION         SUNNY     66  43  43 CALM      30.36F
LANCASTER      SUNNY     69  42  37 SE8       30.36F
ZANESVILLE     SUNNY     66  41  40 CALM      30.36F
NEW PHILLY     SUNNY     67  43  41 NE7       30.37F
$$


USA.gov is the U.S. government's official web portal to all federal, state and local government web resources and services.